www.pogodaiklimat.ru

Погода и климат >> Архив погоды >> Россия >> Коми >> Кедва-Вом


ПОГОДА в Кедва-Воме

  • Прогноз погоды в Кедва-Воме
  • Монитор погоды в Кедва-Воме

АРХИВ ПОГОДЫ в Кедва-Воме

Время (UTC), дата Ветер
(напр.,м/с)
 
Видим.   Явления Облачность Т
(С)
Тd
(С)
f
(%)
Тe
(С)
Тes
(С)
Комфортность P
(гПа)
Po
(гПа)
Тmin
(С)
Tmax
(С)
R
(мм)
R24
(мм)
S
(см)
03 17.07 СЗ 3 20 км 5/5 1000 м
[Cb cap]
+12.0 +10.2 89 +10 +12 1011.4 1003.9 +10.3 0.0
06 17.07 СЗ 4 20 км 8/5 600 м
[Cb cap Ci]
+14.1 +9.5 74 +13 +16 1013.5 1006.1
09 17.07 СЗ 4 20 км 8/4 1000 м
[Cu hum Ci]
+17.5 +8.7 56 +17 +21 1014.2 1006.8
12 17.07 С 2 20 км 8/3 1000 м
[Cu hum Ac As Ci]
+19.6 +18.6 94 +23 +26 комфорт 1015.1 1007.8
15 17.07 С 1 20 км 8/0
[Ac As]
+17.9 +8.2 53 +19 +20 1015.7 1008.3 +19.9
03 18.07 С 2 20 км 9/0
[Ac As]
+11.4 +8.2 81 +10 +11 1017.0 1009.5 +10.1
06 18.07 СЗ 2 20 км 9/0
[Ac As Ci]
+13.8 +7.5 66 +13 +17 1016.0 1008.5
09 18.07 С 3 10 км слаб. ливневой дождь 10/5 600 м
[Cb cap As op]
+14.6 +7.7 63 +14 +15 1015.3 1007.9
12 18.07 С 1 10 км слаб. ливневой дождь 10/8 540 м
[Cb cap As op]
+12.1 +11.1 94 +12 +12 1015.0 1007.5
15 18.07 С 1 4000 м слаб. дождь 10/8 210 м
[Frnb As op]
+11.1 +9.8 92 +11 +11 1014.2 1006.6 +15.4 7
03 19.07 С 1 4000 м морось 10/10 240 м
[St]
+9.8 +8.9 94 +9 +9 1009.7 1002.1 +9.4 9
06 19.07 СЗ 1 4000 м слаб. морось {дождь} 10/10 210 м
[St]
+10.1 +9.0 93 +10 +10 1009.2 1001.7
09 19.07 З 1 20 км {морось} 10/10 270 м
[St]
+11.8 +9.8 88 +12 +12 1009.1 1001.7
12 19.07 ЮЗ 2 20 км в посл. час ливневой дождь 10/6 330 м
[Cb cap As op]
+12.1 +10.5 90 +11 +12 1009.5 1002.0
15 19.07 Ю 1 20 км в посл. час ливневой дождь 10/9 500 м
[Cb cap Ci ing]
+12.5 +11.9 96 +12 +12 1009.5 1002.0 +12.8 1
03 20.07 Ю 2 10 км слаб. дождь 10/8 300 м
[Frnb As op]
+12.0 +10.7 92 +11 +11 1010.0 1002.5 +10.9 0.6
06 20.07 штиль 0 20 км {дождь} 5/5 600 м
[Cu med, cong]
+16.4 +11.9 75 +16 +22 1009.2 1001.8
09 20.07 З 1 20 км 8/5 600 м
[Cu med, cong Ci]
+21.0 +13.4 62 +25 +31 комфорт 1008.5 1001.3
12 20.07 Ю 2 20 км 8/8 570 м
[Cu hum Ci fib]
+23.5 +13.4 53 +26 +27 жарко 1008.3 1001.1
15 20.07 Ю 1 20 км 5/5 600 м
[Cu med, cong]
+22.9 +14.2 58 +26 +27 жарко 1007.9 1000.7 +24.7 0.0
03 21.07 С 1 20 км 10/0
[As op]
+14.7 +12.9 89 +15 +16 1010.5 1003.1 +13.1
06 21.07 С 2 20 км 8/3 600 м
[Sc Ac trans Ci]
+17.8 +14.3 80 +18 +22 1010.5 1003.1
09 21.07 С 2 20 км 8/4 600 м
[Cb cap Cc]
+23.9 +16.1 62 +27 +33 жарко 1009.4 1002.3
12 21.07 СЗ 3 4000 м гроза, ливневой дождь 9/9 540 м
[Cb cap]
+16.9 +15.7 93 +17 +17 1011.0 1003.7
15 21.07 СЗ 3 4000 м гроза, ливневой дождь 10/10 1110 м
[Cb cap]
+15.8 +15.2 96 +15 +15 1012.0 1004.6 +23.9 37
03 22.07 С 2 4000 м слаб. дождь 10/8 240 м
[Frnb As op]
+12.0 +11.3 95 +11 +11 1011.3 1003.9 +12.0 24
06 22.07 С 3 10 км слаб. дождь 10/8 240 м
[Frnb As op]
+12.0 +11.1 94 +10 +11 1010.7 1003.2
09 22.07 С 2 10 км слаб. дождь 10/8 420 м
[Sc As op]
+12.1 +11.0 93 +11 +11 1009.7 1002.2
12 22.07 С 2 10 км дождь 10/8 270 м
[Frnb As op]
+12.0 +11.2 95 +11 +11 1009.0 1001.5
15 22.07 С 2 2000 м дождь 10/10 240 м
[Frnb Ns]
+12.6 +12.0 96 +12 +12 1008.1 1000.6 +12.6 16
03 23.07 СВ 2 20 км 10/10 360 м
[Sc]
+17.8 +16.5 92 +18 +18 1009.2 1001.9 +12.6 3
06 23.07 ЮЗ 2 20 км 10/8 360 м
[Cb cap Ci ing]
+17.5 +16.0 91 +18 +19 1010.5 1003.2
09 23.07 ЮЗ 2 20 км 9/4 600 м
[Cb cap Ci ing]
+21.6 +17.4 77 +26 +31 душно 1011.6 1004.3
12 23.07 СВ 1 4000 м дымка 8/3 600 м
[Cb cap Cs]
+25.1 +14.9 53 +28 +33 жарко 1011.7 1004.6

 

Местоположение метеостанции Кедва-Вом (Коми, Россия): широта 64.22 долгота 53.57 высота над уровнем моря 62 м.

В архиве по умолчанию представлена погода в Кедва-Воме за последнюю неделю. Архивные данные за месяц целиком и за предыдущие месяцы, начиная с января 2011 года, Вы можете получить, выбрав интересующий диапазон дат из раскрывающегося списка и нажав кнопку "Ввод!".


*Определитесь, кто Вы:
робот инопланетянин человек

Внимание! Время в таблицах - всемирное. Для получения местного времени необходимо прибавить поправку, которая равна 3 ч.

Смотрите также архив погоды в соседних городах и на ближайших метеорологических станциях:

Погода в Ухте (Коми, Россия) (76 км)
Погода в Ижме (Коми, Россия) (88 км)
Погода в Ираеле (Коми, Россия) (94 км)
Погода в Усть-Цильме (Коми, Россия) (148 км)
Погода в Вуктыле (Коми, Россия) (188 км)
Погода в Весляне (Коми, Россия) (191 км)
Погода в Печоре (Коми, Россия) (196 км)
Погода в Усть-Щугоре (Коми, Россия) (196 км)
Погода в Мутном Материке (Коми, Россия) (206 км)
Погода в Троицко-Печорском (Коми, Россия) (214 км)

Пояснения к столбцам:

Ветер - указаны скорость ветра в м/с - средняя за 10 мин, порывы в срок и между сроками (в фигурных скобках) и направление, откуда дует ветер: С - северный, СВ - северо-восточный, В - восточный, ЮВ - юго-восточный, Ю - южный, ЮЗ - юго-западный, З - западный, СЗ - северо-западный.
Видимость - горизонтальная дальность видимости в метрах или километрах. При видимости от 1 до 10 км при отсутствии осадков обычно наблюдается дымка, при ухудшении видимости до 1 км и менее - туман. В сухую погоду видимость может ухудшаться дымом, пылью или мглою.
Явления - указаны атмосферные явления, наблюдавшиеся в срок или в последний час перед сроком; фигурными скобками обозначены явления, наблюдавшиеся между сроками (за 1-3 часа до срока); квадратными скобками обозначены град или гололедные отложения с указанием их диаметра в мм.
Облачность - указаны через наклонную черту общая и нижняя облачность в баллах и высота нижней границы облаков в метрах; квадратными скобками обозначены формы облаков: Ci - перистые, Cs - перисто-слоистые, Cc - перисто-кучевые, Ac - высококучевые, As - высокослоистые, Sc - слоисто-кучевые, Ns - слоисто-дождевые, Cu - кучевые, Cb - кучево-дождевые. Подробнее классификацию облаков см. в Атласе облаков (PDF).
T - Температура воздуха - температура, измеренная на высоте 2 м над землей.
Td - Температура точки росы - температура, при понижении до которой содержащийся в воздухе водяной пар достигнет насыщения.
f - Относительная влажность воздуха - влажноcть воздуха, измеренная на высоте 2 м над землей.
Te - Эффективная температура - температура, которую ощущает одетый по сезону человек в тени. Характеристика душности погоды. При расчете учитывается влияние влажности воздуха и скорости ветра на теплоощущения человека.
Tes - Эффективная температура на солнце - температура, которую ощущает человек, с поправкой на солнечный нагрев. Характеристика знойности погоды. Зависит от высоты солнца над горизонтом, облачности и скорости ветра. Ночью, в пасмурную погоду, а также при ветре 12 м/с и более поправка равна нулю.
P - Атмосферное давление - приведенное к уровню моря атмосферное давление.
Po - Атмосферное давление - измеренное на уровне метеостанции атмосферное давление.
Tmin - Минимальная температура - минимум температуры воздуха на высоте 2 м над землей.
Tmax - Максимальная температура - максимум температуры воздуха на высоте 2 м над землей.
R - Количество осадков - Количество выпавших осадков за период времени, мм. При наведении курсора мыши на число - период времени, за который выпало указанное количество осадков.
R24 - Количество осадков - Количество выпавших осадков за 24 часа, мм.
S - Снежный покров - Высота снежного покрова, см. При наведении курсора мыши на число - состояние снежного покрова и степень покрытия местности в баллах.